Location: New Greens
(51.7702°N, 0.3379°W)
Time: 08:20:01
(UTC+00:00)

Tiangong 2 - Visible Passes

Search period start: 19 January 2019 00:00
Search period end: 29 January 2019 00:00
Orbit: 380 x 392 km, 42.8° (Epoch: 19 January)

Date Brightness Start Highest point End Pass type
(mag) Time Alt. Az. Time Alt. Az. Time Alt. Az.
19 Jan 3.8 05:49:04 11° S 05:50:20 13° SSE 05:52:00 10° SE visible
20 Jan 3.5 06:25:28 10° SW 06:27:36 17° S 06:29:45 10° SE visible
21 Jan 3.6 05:28:59 16° SSE 05:28:59 16° SSE 05:30:50 10° SE visible
21 Jan 3.6 07:02:57 10° SW 07:04:53 15° S 07:06:49 10° SSE visible
22 Jan 3.4 06:04:58 14° SSW 06:06:07 16° S 06:08:14 10° SE visible
23 Jan 4.0 05:08:42 13° SSE 05:08:42 13° SSE 05:09:27 10° SE visible
23 Jan 3.7 06:41:54 10° SW 06:43:21 13° SSW 06:44:48 10° SSE visible
24 Jan 3.5 05:44:39 15° S 05:44:39 15° S 05:46:29 10° SSE visible
26 Jan 4.0 05:24:21 10° S 05:24:21 10° S 05:24:25 10° S visible
